sat.trackr.live / text

‹ back to catalog

STARLINK-30269

NORAD 57528 · 2023-115H

PAYLOAD ACTIVE UNKNOWN

§ Identity

Operator
Country
US
Launch date
2023-08-08
Launch site
AFWTR
Launch vehicle
Mass (kg)
RCS (m²)

Purposes: comms

External: N2YO · Heavens-Above · Gunter

§ Orbital elements

Epoch: 2026-09-19T13:02:02.150016Z

Period
94.27 min
Inclination
43.0056°
Eccentricity
0.0002531
Mean motion
15.27576995 rev/d
Perigee alt
481.3 km
Apogee alt
484.8 km
Semi-major
6,861.2 km
B*
2.6925e-5
RAAN
347.2692°
Arg perigee
288.9833°
Mean anomaly
71.0745°
Rev number
17,199

§ Raw data

STARLINK-302691 57528U 23115H   26262.54308044  .00000478  00000+0  26925-4 0  99912 57528  43.0056 347.2692 0002531 288.9833  71.0745 15.27576995171999

JSON: /api/v1/satellites/57528 · /tle

For live sub-satellite position, see the globe view (requires WebGL).

§ Visibility from observer

Set your observer location to see the next 7 days of passes ≥ 10°. The values pass through the URL so the page stays shareable.

No JS? Fill the form by hand. The geolocation button needs JavaScript.